Flag for U.S.A. Weather past 2 weeks in Huntington Beach, California, U.S.A.

66 °F


Feels Like: 66 °F
Forecast: 64 / 78 °F
Wind: No wind

Location: John Wayne Airport-Orange County Airport

Current Time: Oct 7, 2015 at 2:14:31 AM

Latest Report: Oct 7, 2015 at 1:53 AM

Visibility: 10 mi

Pressure: 30.03 "Hg

Humidity: 84%

Dew point: 61 °F

Location of Huntington BeachLocation

Historic Weather in Huntington Beach — Graph


Huntington Beach temperature yesterday

Maximum temperature yesterday: 76 °F (at 1:53 PM)
Minimum temperature yesterday: 62 °F (at 5:53 AM)
Average temperature yesterday: 69 °F

Past Weeks' High & Low Weather Summary

High87 °F (Sep 25, 1:53 PM)100% (Sep 26, 4:01 AM)30.10 "Hg (Sep 26, 4:01 AM)
Low61 °F (Oct 5, 2:53 AM)37% (Sep 25, 2:53 PM)29.55 "Hg (Oct 3, 6:53 PM)
Average73 °F74%29.84 "Hg
* Reported Sep 22 12:53 AM — Oct 7 12:53 AM, Huntington Beach, Weather by CustomWeather, © 2015

Note: Actual official high and low records may vary slightly from our data, if they occured in-between our weather recording intervals... More about our weather records


Huntington Beach weather history for previous 24 hours

Time TempWeatherWind HumidityBarometerVisibility
12:53 AM
Wed, Oct 7
67 °FClear.No wind85%30.02 "Hg10 mi
11:53 PM
Tue, Oct 6
68 °FClear.No wind82%30.02 "Hg10 mi
10:53 PM68 °FClear.No wind82%30.03 "Hg10 mi
9:53 PM69 °FClear.No wind79%30.02 "Hg10 mi
8:53 PM70 °FClear.No wind76%30.03 "Hg10 mi
7:53 PM70 °FPassing clouds.3 mph76%30.03 "Hg10 mi
6:53 PM70 °FPassing clouds.7 mph76%30.02 "Hg10 mi
5:53 PM72 °FPassing clouds.6 mph68%30.01 "Hg10 mi
4:53 PM74 °FPassing clouds.7 mph60%30.01 "Hg10 mi
3:53 PM75 °FPassing clouds.7 mph60%30.01 "Hg10 mi
2:53 PM75 °FPassing clouds.8 mph62%30.02 "Hg10 mi
1:53 PM76 °FScattered clouds.7 mph58%30.04 "Hg10 mi
12:53 PM75 °FScattered clouds.No wind58%30.07 "Hg10 mi
11:53 AM75 °FBroken clouds.7 mph54%30.09 "Hg10 mi
10:53 AM72 °FPartly sunny.5 mph61%30.10 "Hg10 mi
9:53 AM71 °FScattered clouds.5 mph66%30.09 "Hg10 mi
8:53 AM69 °FPassing clouds.No wind66%30.08 "Hg10 mi
7:53 AM66 °FPassing clouds.3 mph70%30.05 "Hg10 mi
6:53 AM63 °FPassing clouds.3 mph81%30.03 "Hg10 mi
5:53 AM62 °FClear.No wind86%30.02 "Hg10 mi
4:53 AM64 °FClear.No wind81%30.01 "Hg10 mi
3:53 AM64 °FClear.3 mph81%30.00 "Hg10 mi
2:53 AM65 °FClear.No wind78%30.00 "Hg10 mi
Weather by CustomWeather, © 2015

See weather overviewHow to use our weather pages